This is the latest recevied weather packets stored in our database for station/object M0OAB-1. If no packets are shown the sender has not sent any weather packets the latest 10 day(s).
| Time | Temp. | Humidity | Pressure | Rain* | Wind** | Luminosity | Snow |
|---|---|---|---|---|---|---|---|
| 1777733045 | 22.78° C | 42% | 1000.2 hPa | 0 mm | - | - | - |
| 1777732804 | 22.78° C | 42% | 1000.2 hPa | 0 mm | - | - | - |
| 1777731604 | 22.78° C | 42% | 1000.7 hPa | 0 mm | - | - | - |
| 1777731244 | 22.78° C | 41% | 1000.6 hPa | 0 mm | - | - | - |
| 1777730884 | 22.78° C | 42% | 1000.8 hPa | 0 mm | - | - | - |
| 1777730644 | 22.78° C | 41% | 1000.8 hPa | 0 mm | - | - | - |
| 1777729804 | 23.33° C | 41% | 1001.2 hPa | 0 mm | - | - | - |
| 1777729444 | 22.78° C | 42% | 1001.2 hPa | 0 mm | - | - | - |
| 1777729084 | 22.78° C | 41% | 1001.4 hPa | 0 mm | - | - | - |
| 1777728604 | 23.33° C | 41% | 1001.5 hPa | 0 mm | - | - | - |
| 1777727765 | 23.33° C | 41% | 1001.6 hPa | 0 mm | - | - | - |
| 1777726205 | 23.33° C | 38% | 1001.9 hPa | 0 mm | - | - | - |
| 1777724524 | 23.33° C | 42% | 1002 hPa | 0 mm | - | - | - |
| 1777724285 | 23.33° C | 43% | 1002.1 hPa | 0 mm | - | - | - |
| 1777723324 | 23.33° C | 46% | 1002.3 hPa | 0 mm | - | - | - |
| 1777720084 | 21.67° C | 51% | 1002.9 hPa | 0 mm | - | - | - |
| 1777719604 | 21.67° C | 52% | 1003.1 hPa | 0 mm | - | - | - |
| 1777717684 | 20.56° C | 54% | 1003.2 hPa | 0 mm | - | - | - |
| 1777716845 | 20° C | 52% | 1003.2 hPa | 0 mm | - | - | - |
| 1777715764 | 21.11° C | 51% | 1003.4 hPa | 0 mm | - | - | - |
| 1777715524 | 21.11° C | 54% | 1003.4 hPa | 0 mm | - | - | - |
| 1777715404 | 20.56° C | 56% | 1003.5 hPa | 0 mm | - | - | - |
| 1777715044 | 20° C | 58% | 1003.6 hPa | 0 mm | - | - | - |
| 1777714804 | 19.44° C | 59% | 1003.5 hPa | 0 mm | - | - | - |
| 1777713365 | 19.44° C | 60% | 1003.7 hPa | 0 mm | - | - | - |
* Rain latest hour (hover to see other rain measurements)
** Current wind speed in m/s (hover to see current wind gust speed)